Regional Weather Roundup
Issued by NWS

Home | Current Version | Previous Version | Graphics & Text | Print | Product List | Glossary On
Versions: 1 2 3 4 5 6 7 8 9 10 11 12 13 14 15 16 17 18 19 20 21 22 23 24 25 26 27 28 29 30 31 32 33 34 35 36 37 38 39 40 41 42 43 44 45 46 47 48 49 50
000
ASUS44 KMEG 171700
RWRTN
TENNESSEE HOURLY STATE WEATHER ROUNDUP
NATIONAL WEATHER SERVICE MEMPHIS TN
1100 AM CST TUE JAN 17 2017

TNZ002-004-019-021-049-052-054-088>092-171800-
WEST TENNESSEE

CITY           SKY/WX    TMP DP  RH WIND       PRES   REMARKS
MEMPHIS INTL   CLOUDY    54  46  74 W7        30.14R
NWS MEMPHIS      N/A     54 N/A N/A MISG        N/A
JACKSON        CLOUDY    56  50  80 SW10      30.10F
DYERSBURG      MOSUNNY   52  43  71 W10       30.11R
UNION CITY     SUNNY     50  50 100 CALM      30.08S
PARIS          MOSUNNY   50  46  87 SW10      30.08F
$$

TNZ008-025-027-028-033-062-065-066-171800-
NORTH MIDDLE TENNESSEE

CITY           SKY/WX    TMP DP  RH WIND       PRES   REMARKS
NASHVILLE      CLOUDY    63  58  83 SW8       30.06F
CLARKSVILLE    CLOUDY    60  49  66 SW13G24   30.05S
SMYRNA         CLOUDY    63  61  93 SW8       30.06F
CROSSVILLE     LGT RAIN  58  57  97 VRB6      30.10F FOG
$$

TNZ061-075-076-078-094-096-097-171800-
SOUTH MIDDLE TENNESSEE

CITY           SKY/WX    TMP DP  RH WIND       PRES   REMARKS
TULLAHOMA      CLOUDY    64  61  88 S18       30.09F
WINCHESTER     CLOUDY    66  59  77 SW16      30.11F
MCMINNVILLE    CLOUDY    64  64 100 SW14      30.07F
COLUMBIA       CLOUDY   N/A N/A N/A SW6       30.06F
SHELBYVILLE    CLOUDY    64  64 100 SW9       30.09F
$$

TNZ017-018-042-046-047-171800-
NORTHEAST TENNESSEE

CITY           SKY/WX    TMP DP  RH WIND       PRES   REMARKS
TRI CITIES     LGT RAIN  57  52  83 SW5       30.12F
$$

TNZ012-013-036-069-073-074-171800-
CENTRAL EAST TENNESSEE

CITY           SKY/WX    TMP DP  RH WIND       PRES   REMARKS
KNOXVILLE      LGT RAIN  63  55  75 SW15      30.10F
OAK RIDGE      RAIN      58  56  93 CALM      30.12F FOG
GATLINBURG     CLOUDY    63  55  77 NW5       30.10F
$$

TNZ083-085-099-171800-
SOUTHEAST TENNESSEE

CITY           SKY/WX    TMP DP  RH WIND       PRES   REMARKS
CHATTANOOGA    CLOUDY    64  56  75 S8G18     30.15F
$$

SKY/WX REPORTED AS FAIR MEANS FEW OR NO CLOUDS BELOW
12 THOUSAND FEET.




USA.gov is the U.S. government's official web portal to all federal, state and local government web resources and services.